Location: Chomutov
(50.4500°N, 13.4333°E)
Time: 16:02:54
(UTC+02:00)

Tiangong - Visible Passes

Search period start: 25 September 2022 00:00
Search period end: 05 October 2022 00:00
Orbit: 377 x 383 km, 41.5° (Epoch: 24 September)

Date Brightness Start Highest point End Pass type
(mag) Time Alt. Az. Time Alt. Az. Time Alt. Az.
25 Sep 0.2 06:02:15 10° SW 06:03:50 13° SSW 06:05:25 10° SSE visible
26 Sep 0.3 05:04:02 13° SSE 05:04:02 13° SSE 05:04:50 10° SSE visible
27 Sep 0.3 05:38:05 11° SSW 05:38:05 11° SSW 05:38:39 10° S visible
